1998-067UK

Last updated on Tue Sep 13 2022 00:02:07 GMT+0000 (Coordinated Universal Time)

1 53772U 98067UK 22254.25285730 .00041009 00000+0 70752-3 0 9998 2 53772 51.6403 270.1930 0002389 221.1622 138.9187 15.50604324 765
UTC large
Height (km)
Speed (km/s)
/
Latitude / Longitude
Inclination (degrees)
Orbital Period (minutes)
Azimuth
Elevation
Range (km)
Doppler Factor

Next 0 passes for location: London (51.5072 / 0.1276)

Sorry there are no passes over London.
1998-067UK